Mobridge, SD

6:17 PM CDT on April 28, 2017 (GMT -0500)
Mobridge Municipal

Weather History for KMBG - December, 2013

Change the Weather History Date:

Wednesday, December 18, 2013

  Actual Average Record
Temperature  
Mean Temperature 35 °F 17 °F  
Max Temperature 50 °F 28 °F 60 °F (2011)
Min Temperature 19 °F 7 °F -26 °F (1929)
Degree Days  
Heating Degree Days 30 48  
Month to date heating degree days 964 815  
Since 1 July heating degree days 2772 2581  
Cooling Degree Days 0 0  
Month to date cooling degree days 0 0  
Year to date cooling degree days 700 644  
Moisture  
Dew Point 23 °F    
Average Humidity 67    
Maximum Humidity 92    
Minimum Humidity 42    
Precipitation  
Precipitation 0.00 in 0.02 in 0.09 in (1937)
Month to date precipitation 0.34 0.19  
Year to date precipitation 23.26 17.62  
Snow  
Snow 0.00 in - - ()
Month to date snowfall 7.6  
Since 1 July snowfall 8.6  
Snow Depth T in    
Sea Level Pressure  
Sea Level Pressure 29.78 in    
Wind  
Wind Speed 9 mph (NNE)    
Max Wind Speed 24 mph    
Max Gust Speed 31 mph    
Visibility 10 miles    
Events      
T = Trace of Precipitation, MM = Missing Value Source: NWS Daily Summary

Daily Weather History Graph

Daily Weather History Graph

Search for Another Location

Airport or City:

Trip Planner

Search our weather history database for the weather conditions in past years. The results will help you decide how hot, cold, wet, or windy it might be!

Date:

Astronomy

Dec. 18, 2013 Rise Set
Actual Time 8:17 AM CST 4:59 PM CST
Civil Twilight 7:43 AM CST 5:33 PM CST
Nautical Twilight 7:05 AM CST 6:11 PM CST
Astronomical Twilight 6:29 AM CST 6:47 PM CST
Moon 6:37 PM CST (12/18) 8:54 AM CST (12/18)
Length of Visible Light 9h 50m
Length of Day
8h 42m
Full, 98% of the Moon is Illuminated
Dec 18
Full
Dec 25
Last Quarter
Jan 1
New
Jan 7
First Quarter
Jan 15
Full

Hourly Weather History & Observations

Time (CST) Temp. Windchill Dew Point Humidity Pressure Visibility Wind Dir Wind Speed Gust Speed Precip Events Conditions
12:52 AM 23.0 °F 11.7 °F 18.0 °F 81% 29.76 in 10.0 mi SSE 11.5 mph - N/A   Clear
1:52 AM 21.9 °F 13.4 °F 18.0 °F 85% 29.74 in 10.0 mi SE 6.9 mph - N/A   Clear
2:52 AM 19.9 °F 12.1 °F 16.0 °F 85% 29.73 in 10.0 mi SE 5.8 mph - N/A   Clear
3:52 AM 19.9 °F 12.1 °F 17.1 °F 89% 29.72 in 10.0 mi SE 5.8 mph - N/A   Clear
4:52 AM 21.9 °F 15.7 °F 19.0 °F 89% 29.72 in 10.0 mi ESE 4.6 mph - N/A   Clear
5:52 AM 19.9 °F - 18.0 °F 92% 29.72 in 10.0 mi Calm Calm - N/A   Clear
6:52 AM 21.9 °F 14.5 °F 19.0 °F 89% 29.70 in 10.0 mi ESE 5.8 mph - N/A   Clear
7:52 AM 23.0 °F 18.4 °F 19.9 °F 88% 29.70 in 10.0 mi East 3.5 mph - N/A   Clear
8:52 AM 21.9 °F 17.2 °F 19.0 °F 89% 29.71 in 10.0 mi SE 3.5 mph - N/A   Clear
9:52 AM 28.9 °F - 23.0 °F 78% 29.71 in 10.0 mi Calm Calm - N/A   Clear
10:52 AM 33.1 °F 30.0 °F 25.0 °F 72% 29.72 in 10.0 mi SE 3.5 mph - N/A   Clear
11:52 AM 37.9 °F 35.5 °F 25.0 °F 60% 29.73 in 10.0 mi NW 3.5 mph - N/A   Clear
12:52 PM 41.0 °F 39.0 °F 28.0 °F 60% 29.71 in 10.0 mi SSE 3.5 mph - N/A   Clear
1:52 PM 48.0 °F - 27.0 °F 44% 29.68 in 10.0 mi WNW 6.9 mph - N/A   Clear
2:52 PM 48.0 °F - 28.9 °F 48% 29.68 in 10.0 mi West 9.2 mph - N/A   Clear
3:52 PM 46.0 °F 40.6 °F 28.0 °F 50% 29.70 in 10.0 mi NW 11.5 mph - N/A   Clear
4:52 PM 39.9 °F 33.9 °F 28.0 °F 63% 29.73 in 10.0 mi NW 9.2 mph - N/A   Clear
5:52 PM 39.0 °F 31.0 °F 28.0 °F 65% 29.78 in 10.0 mi NW 13.8 mph - N/A   Clear
6:52 PM 36.0 °F 26.7 °F 28.0 °F 73% 29.81 in 10.0 mi NNW 15.0 mph - N/A   Clear
7:52 PM 33.1 °F 21.5 °F 27.0 °F 78% 29.86 in 10.0 mi North 19.6 mph 26.5 mph N/A   Partly Cloudy
8:07 PM 33.8 °F 26.4 °F 26.6 °F 75% 29.82 in 10.0 mi North 9.2 mph - N/A   Mostly Cloudy
8:52 PM 30.0 °F 18.3 °F 26.1 °F 85% 29.91 in 8.0 mi North 17.3 mph - N/A   Overcast
9:52 PM 28.9 °F 18.6 °F 24.1 °F 82% 29.93 in 10.0 mi NNE 12.7 mph 21.9 mph N/A   Overcast
10:15 PM 28.4 °F 17.0 °F 24.8 °F 86% 29.86 in 10.0 mi North 15.0 mph - N/A   Overcast
10:52 PM 28.0 °F 16.5 °F 24.1 °F 85% 29.93 in 10.0 mi North 15.0 mph - N/A   Overcast
11:29 PM 24.8 °F 11.1 °F 19.4 °F 80% 29.90 in 10.0 mi North 18.4 mph - N/A   Overcast
11:52 PM 23.0 °F 7.6 °F 17.1 °F 78% 29.97 in 10.0 mi North 21.9 mph 31.1 mph N/A   Overcast